Probability
26 32 84 77 68 65 68 71 74 68 74 77 68 65 68 71 74 71 71 71 71 74 65 61 61 65 68 71 68 65 68 71 81 74 71 77 77 68 61 65 48 45 58
26 39 81 81 71 71 65 65 68 65 74 71 71 71 68 65 68 74 77 77 81 74 71 65 58 68 58 58 58 61 65 68 71 68 74 74 58 58 61 61 61 45 61
26 42 68 81 74 71 65 68 61 58 65 65 65 71 68 68 68 71 71 71 77 71 77 71 61 58 61 52 55 42 45 55 65 65 71 55 42 55 58 58 71 68 61
23 35 55 77 74 74 68 61 61 65 55 58 61 58 61 61 61 65 71 71 68 65 65 61 48 48 58 58 55 48 39 39 42 55 45 42 32 58 61 58 61 55 52
32 39 61 77 71 71 68 61 65 61 61 55 52 55 52 55 55 58 58 55 52 55 58 52 48 48 55 61 48 42 45 39 48 45 35 45 52 61 68 58 52 48 42
29 29 58 77 68 68 65 55 58 55 52 52 52 52 45 45 52 58 48 55 58 55 45 42 42 48 52 58 45 45 45 52 35 19 29 39 42 58 65 55 42 42 42
26 29 42 74 71 65 58 65 55 58 52 45 42 45 48 48 42 52 45 45 52 42 45 52 35 35 39 45 42 45 52 52 42 23 26 35 55 65 58 61 45 45 42
29 23 39 71 77 58 58 52 42 48 45 45 45 39 45 48 48 45 35 42 39 35 42 45 32 26 29 29 35 45 48 52 19 10 23 39 58 58 55 55 45 48 45
13 16 26 35 52 61 48 45 48 45 42 39 45 45 42 45 52 39 39 39 32 23 32 29 23 26 32 42 39 48 55 58 35 13 10 29 61 58 61 61 48 42 32
13 16 16 26 42 39 48 52 55 52 45 35 55 58 55 42 42 45 48 45 35 29 29 29 26 29 39 48 42 48 52 55 26 6 23 29 61 61 52 52 52 45 39
16 16 16 19 23 23 29 35 39 48 42 42 58 61 52 39 32 39 35 45 42 39 39 29 35 42 48 45 48 48 55 26 13 10 19 48 65 61 58 52 55 48 45
16 13 19 23 26 23 23 35 48 32 48 55 65 52 52 61 48 23 42 48 42 39 48 42 58 48 45 35 39 52 32 32 13 16 23 61 71 68 65 58 48 52 48
16 16 19 19 32 26 29 32 48 45 55 52 58 55 65 58 52 48 39 48 52 45 39 52 52 42 32 35 42 39 35 26 16 19 19 58 68 71 58 55 55 45 48
23 23 19 29 35 48 48 35 42 42 42 35 61 61 61 61 61 55 61 61 61 61 58 48 48 42 45 39 39 35 29 26 29 32 26 61 61 61 58 52 48 52 55
23 23 26 39 58 61 71 58 42 55 39 39 65 71 71 71 61 48 55 68 68 68 65 55 45 55 45 55 45 35 42 32 26 32 35 61 68 58 61 55 52 48 52
29 39 39 45 55 68 74 71 65 45 65 55 68 71 65 61 61 55 58 65 65 65 55 65 52 48 55 55 48 48 45 45 45 45 35 45 65 58 58 58 58 48 52
35 39 45 45 55 65 65 61 45 52 52 61 65 74 68 65 68 65 68 68 71 65 55 61 58 58 52 48 52 52 48 55 55 48 45 35 39 52 61 58 65 58 55
42 61 58 32 52 65 71 71 58 58 61 71 68 68 65 71 71 71 74 61 65 61 68 65 61 65 61 58 61 58 58 58 52 55 52 45 35 23 42 58 52 58 55
55 65 61 61 55 58 68 68 68 81 77 77 71 68 61 65 71 68 74 68 71 71 68 55 65 65 61 65 61 58 61 65 52 42 42 45 45 39 32 32 48 52 52
58 61 65 68 68 71 68 77 87 81 74 65 65 68 65 65 65 58 58 65 65 65 65 68 65 74 61 61 35 39 58 55 45 48 42 42 35 29 19 29 35 39 45
55 61 68 71 68 71 74 74 74 74 68 68 61 58 61 61 65 68 65 65 68 68 68 61 65 61 58 52 52 35 45 48 32 52 48 39 39 32 39 32 32 35 39
48 58 65 68 68 71 74 84 77 77 65 61 68 68 65 68 71 48 68 52 65 68 68 65 61 61 48 45 48 35 35 42 42 16 45 48 29 39 42 29 32 29 29
48 55 48 71 81 77 71 74 71 74 71 71 65 65 68 68 65 68 65 61 61 65 65 61 61 61 55 48 42 42 39 32 32 45 35 35 35 26 29 35 35 35 26
39 45 52 68 81 77 74 71 68 71 65 65 65 65 61 61 61 61 68 65 77 71 65 65 65 65 61 61 58 52 45 39 39 42 45 39 29 35 29 19 19 26 29
35 42 45 65 74 74 74 71 71 68 58 61 61 61 61 58 55 52 58 58 68 71 65 61 58 65 65 61 55 55 52 52 42 39 39 32 32 32 32 35 23 19 26
35 39 45 65 71 74 68 68 68 68 55 52 52 48 52 52 55 55 58 65 61 61 61 65 58 61 58 58 52 48 45 45 45 39 39 32 32 32 26 32 23 29 29
Height
5881 5881 5881 5882 5882 5883 5883 5883 5883 5883 5883 5883 5883 5884 5885 5886 5886 5887 5888 5888 5889 5890 5890 5891 5892 5892 5893 5893 5893 5894 5895 5895 5895 5896 5896 5896 5897 5897 5898 5898 5899 5899 5899
5882 5882 5882 5883 5883 5883 5883 5883 5883 5883 5883 5884 5884 5885 5885 5886 5887 5887 5888 5889 5889 5890 5891 5891 5892 5892 5893 5894 5894 5894 5895 5895 5896 5896 5897 5897 5897 5897 5898 5898 5899 5899 5900
5883 5883 5883 5883 5884 5884 5884 5884 5883 5883 5884 5884 5885 5885 5886 5886 5887 5888 5889 5889 5890 5891 5891 5891 5892 5893 5893 5894 5894 5895 5895 5896 5896 5897 5897 5897 5897 5898 5898 5899 5899 5900 5900
5884 5884 5884 5884 5884 5884 5884 5884 5883 5883 5884 5884 5885 5885 5886 5887 5887 5888 5889 5889 5890 5891 5891 5891 5892 5893 5893 5894 5895 5895 5896 5896 5897 5897 5897 5898 5898 5898 5899 5899 5900 5900 5901
5885 5885 5885 5885 5884 5884 5884 5883 5883 5883 5884 5884 5885 5885 5886 5886 5887 5888 5888 5889 5890 5890 5891 5891 5892 5892 5893 5894 5895 5895 5896 5896 5897 5898 5898 5898 5898 5898 5899 5900 5900 5900 5901
5887 5886 5885 5885 5884 5884 5884 5883 5883 5883 5883 5884 5884 5885 5885 5886 5886 5887 5888 5888 5889 5889 5890 5891 5892 5892 5893 5894 5895 5895 5896 5896 5897 5898 5898 5898 5898 5899 5899 5900 5900 5900 5900
5887 5886 5886 5885 5885 5884 5884 5883 5883 5883 5883 5884 5884 5885 5885 5886 5886 5886 5887 5887 5888 5889 5889 5890 5891 5892 5893 5894 5894 5895 5896 5896 5897 5898 5898 5898 5898 5899 5899 5900 5900 5900 5901
5889 5888 5887 5886 5885 5884 5884 5883 5883 5883 5883 5883 5884 5884 5885 5885 5885 5886 5886 5886 5887 5888 5889 5890 5891 5892 5893 5894 5894 5895 5895 5896 5897 5898 5898 5898 5899 5899 5899 5899 5900 5900 5901
5890 5889 5887 5886 5885 5884 5884 5883 5883 5883 5883 5883 5883 5884 5884 5883 5884 5885 5885 5886 5886 5887 5888 5889 5890 5891 5892 5893 5894 5895 5895 5896 5897 5897 5898 5898 5899 5899 5899 5899 5900 5900 5900
5891 5890 5888 5887 5885 5885 5884 5883 5883 5883 5883 5883 5883 5883 5883 5883 5883 5883 5884 5884 5885 5886 5887 5888 5889 5891 5892 5893 5894 5894 5895 5896 5897 5897 5897 5898 5898 5899 5899 5899 5899 5899 5899
5891 5890 5889 5888 5886 5885 5884 5883 5883 5883 5882 5882 5882 5882 5882 5882 5882 5882 5882 5883 5883 5884 5886 5887 5888 5890 5891 5892 5893 5894 5895 5895 5896 5897 5897 5897 5898 5898 5898 5899 5899 5899 5899
5891 5890 5889 5888 5887 5886 5885 5884 5883 5882 5882 5882 5882 5881 5881 5881 5882 5882 5882 5881 5882 5883 5884 5885 5887 5888 5890 5891 5892 5893 5894 5895 5895 5896 5896 5897 5897 5897 5897 5898 5898 5898 5898
5891 5890 5889 5888 5887 5885 5884 5883 5883 5882 5882 5882 5881 5881 5881 5881 5881 5881 5880 5880 5881 5881 5882 5884 5885 5887 5888 5890 5891 5892 5893 5894 5894 5895 5895 5896 5896 5896 5897 5897 5897 5897 5896
5891 5890 5889 5887 5886 5885 5884 5883 5882 5882 5882 5882 5881 5881 5881 5880 5880 5880 5880 5880 5880 5881 5882 5883 5884 5886 5887 5889 5890 5891 5891 5892 5893 5893 5894 5895 5895 5895 5895 5895 5895 5895 5895
5892 5890 5889 5887 5886 5885 5884 5883 5882 5882 5882 5882 5881 5881 5881 5881 5880 5879 5879 5880 5880 5880 5881 5882 5884 5885 5886 5887 5888 5889 5890 5891 5891 5892 5893 5893 5893 5894 5894 5894 5894 5894 5894
5892 5891 5889 5888 5886 5885 5884 5883 5883 5882 5882 5882 5882 5881 5881 5881 5880 5879 5879 5879 5879 5880 5880 5881 5883 5884 5885 5886 5887 5888 5889 5889 5890 5891 5891 5891 5892 5892 5892 5892 5892 5892 5892
5892 5891 5890 5888 5887 5886 5885 5884 5884 5883 5883 5882 5882 5881 5881 5881 5880 5879 5879 5878 5878 5879 5880 5880 5882 5883 5884 5885 5886 5887 5887 5888 5889 5889 5889 5890 5890 5890 5890 5891 5891 5891 5891
5893 5892 5891 5889 5887 5886 5885 5885 5884 5883 5883 5882 5882 5881 5881 5881 5880 5879 5879 5879 5879 5879 5879 5880 5881 5882 5883 5884 5884 5885 5886 5886 5887 5887 5888 5888 5888 5888 5889 5889 5889 5889 5889
5894 5893 5892 5890 5888 5887 5886 5885 5885 5884 5883 5882 5882 5881 5880 5880 5880 5879 5879 5879 5879 5879 5879 5879 5880 5881 5881 5882 5883 5883 5884 5884 5885 5885 5886 5886 5886 5887 5887 5887 5887 5888 5888
5896 5894 5893 5891 5889 5888 5887 5886 5885 5884 5883 5882 5881 5881 5880 5879 5879 5879 5879 5879 5878 5878 5878 5878 5879 5879 5879 5880 5880 5881 5881 5882 5882 5883 5883 5884 5884 5884 5885 5885 5885 5886 5885
5897 5895 5893 5892 5890 5889 5887 5886 5885 5884 5883 5882 5881 5880 5880 5879 5879 5878 5878 5878 5878 5877 5877 5877 5877 5878 5878 5878 5878 5878 5879 5879 5880 5880 5881 5882 5882 5882 5883 5883 5883 5883 5883
5897 5895 5894 5892 5890 5888 5887 5886 5884 5883 5882 5882 5881 5880 5879 5879 5878 5878 5877 5877 5876 5876 5876 5876 5876 5876 5876 5876 5876 5876 5877 5877 5877 5878 5879 5880 5880 5880 5881 5881 5881 5881 5881
5897 5895 5894 5892 5890 5888 5886 5885 5884 5883 5882 5882 5881 5880 5879 5878 5878 5877 5877 5876 5875 5875 5874 5874 5874 5875 5874 5874 5874 5875 5875 5875 5875 5876 5876 5876 5877 5877 5878 5878 5878 5878 5878
5896 5895 5893 5891 5889 5888 5886 5885 5884 5883 5882 5881 5880 5879 5878 5877 5877 5876 5875 5875 5874 5874 5873 5873 5872 5872 5872 5872 5872 5872 5873 5873 5873 5873 5873 5873 5874 5874 5874 5875 5875 5875 5875
5896 5894 5892 5891 5889 5887 5885 5884 5883 5882 5881 5880 5879 5878 5877 5876 5876 5875 5874 5873 5873 5872 5871 5871 5870 5870 5870 5870 5870 5870 5870 5870 5870 5870 5871 5871 5871 5871 5871 5871 5871 5871 5872
5894 5893 5891 5890 5888 5886 5885 5883 5882 5881 5880 5879 5878 5877 5876 5875 5874 5874 5873 5872 5871 5870 5870 5869 5868 5868 5868 5867 5867 5867 5867 5867 5867 5867 5867 5867 5868 5868 5867 5867 5867 5868 5868
Wind_Speed
4 2 1 1 1 2 2 2 3 3 4 5 5 7 7 8 8 7 6 6 5 6 5 5 4 3 2 2 2 3 3 2 2 2 2 2 2 2 2 3 3 3 2
4 2 1 0 1 1 1 2 3 3 4 4 5 6 7 7 7 7 6 5 5 6 6 5 4 3 2 2 1 3 2 2 2 2 2 2 2 3 3 4 4 4 4
4 3 1 1 1 1 1 1 2 3 5 5 5 6 6 6 5 6 6 5 5 6 5 4 4 3 3 2 1 2 2 2 2 1 1 2 2 3 3 3 3 4 3
4 3 2 2 2 2 2 2 2 3 4 5 5 5 4 5 5 5 5 5 5 6 5 4 4 3 3 3 2 2 2 2 1 1 1 1 1 2 2 3 3 3 2
4 3 3 3 3 3 3 2 2 2 3 4 5 5 5 5 5 5 6 6 5 6 5 4 3 3 3 3 2 2 2 2 2 1 1 1 1 1 1 2 2 2 2
5 4 4 4 4 3 3 3 2 3 3 4 5 5 6 6 6 6 6 6 5 5 5 4 3 3 3 3 3 3 3 3 2 1 1 1 1 1 1 1 1 1 1
6 6 6 5 5 4 3 2 2 2 2 3 5 6 5 6 6 6 6 7 6 5 5 4 3 3 3 4 3 3 3 3 3 2 1 1 0 0 1 1 1 1 1
6 7 7 6 5 5 4 2 1 1 2 3 3 5 5 6 7 6 6 7 7 6 5 5 5 4 4 4 4 4 4 3 3 3 3 1 1 2 1 2 2 2 2
7 8 8 7 6 5 4 3 2 1 1 2 3 3 3 4 6 6 6 6 7 7 6 6 6 5 4 4 4 4 4 4 4 4 4 3 2 2 2 2 2 3 3
8 8 9 8 7 5 4 4 3 2 2 2 3 3 4 4 5 6 7 7 7 7 7 7 7 6 5 5 5 5 5 5 5 5 5 4 3 3 3 3 3 4 4
9 9 8 8 8 7 5 5 4 3 3 3 3 3 3 3 4 6 7 7 7 7 7 7 7 6 6 5 5 5 5 5 6 5 5 5 4 4 4 4 4 5 5
9 9 9 8 9 8 7 6 5 4 4 4 4 3 3 3 3 4 5 6 6 6 6 8 7 7 6 6 6 6 6 6 6 6 5 5 5 5 5 5 6 6 6
11 10 9 9 8 8 7 7 6 5 4 4 4 3 4 3 3 3 4 5 6 6 7 7 8 7 7 7 6 7 6 7 6 6 6 6 6 6 6 6 7 6 6
12 10 9 9 8 7 7 6 6 5 4 4 4 3 3 3 3 3 4 4 5 6 7 8 8 8 7 7 6 6 7 7 7 6 6 6 7 7 7 7 7 7 7
11 10 10 9 8 8 6 6 5 5 4 4 4 3 3 4 4 4 4 4 4 4 6 7 8 8 8 7 7 7 7 7 7 7 7 7 7 7 7 7 7 7 7
11 10 10 9 9 8 7 6 6 5 5 4 4 3 3 4 4 4 5 4 4 4 5 6 6 6 7 6 6 7 7 7 7 8 8 8 8 7 7 7 7 7 7
11 10 11 10 9 8 8 7 6 6 5 4 4 4 4 4 4 4 5 5 4 5 5 5 5 6 7 7 6 7 8 8 8 7 7 7 8 8 7 7 7 7 7
10 10 10 11 9 8 7 7 7 6 6 5 5 5 5 5 5 4 4 4 3 4 5 5 6 7 7 7 7 8 8 9 8 8 8 8 8 7 7 7 7 7 7
10 10 11 11 10 9 8 7 7 7 7 6 6 5 5 5 5 5 5 5 4 4 5 5 6 7 8 8 8 9 9 9 9 9 8 8 8 8 7 7 7 7 8
10 10 11 11 10 9 9 8 8 8 8 7 6 6 6 6 6 5 5 4 5 5 5 6 6 7 7 8 9 9 9 9 9 10 10 9 8 8 8 7 8 7 7
10 11 11 11 10 10 9 9 9 9 9 8 7 6 6 6 6 6 6 6 5 5 6 6 7 7 7 8 8 8 9 9 9 10 10 9 9 9 8 9 8 8 8
11 12 11 11 11 10 10 10 9 9 9 8 8 7 7 7 7 7 6 7 6 6 7 7 7 7 8 8 9 9 9 10 10 10 11 11 11 11 10 10 9 9 10
12 12 12 12 12 12 11 11 10 9 9 9 9 9 8 8 8 8 7 7 7 7 7 8 7 8 8 9 9 10 10 10 10 10 11 12 12 11 11 10 11 11 11
13 13 13 13 13 13 12 10 10 10 10 9 9 10 9 9 9 9 9 9 8 8 8 8 8 8 9 9 10 11 11 11 11 11 12 12 12 12 12 12 12 12 12
13 13 13 13 14 13 12 11 11 11 11 11 10 10 10 10 10 10 10 10 10 10 10 9 9 9 9 10 10 11 11 12 12 11 12 13 13 13 13 13 13 13 13
13 13 13 13 13 13 12 11 11 12 12 12 12 12 12 12 11 11 11 11 11 11 11 10 10 10 11 11 11 11 11 13 13 13 13 14 15 15 15 15 14 14 14
Wind_Direction
22 21 75 142 171 182 187 194 205 195 184 175 179 182 183 185 183 182 184 181 183 185 181 184 185 186 174 158 167 160 151 149 147 147 142 139 138 125 108 101 94 90 104
24 28 50 82 199 204 213 207 214 213 197 187 185 181 184 188 189 189 190 188 192 193 192 187 185 181 175 152 155 162 144 143 146 127 95 100 113 114 122 112 98 92 84
32 35 21 2 317 286 268 227 221 202 196 192 183 182 186 189 193 191 198 200 197 197 200 197 199 193 187 164 150 160 151 150 139 132 94 86 89 103 109 106 106 107 94
35 32 8 351 316 306 300 269 241 222 202 194 192 194 193 197 197 197 206 205 201 205 208 211 209 202 205 197 180 162 168 174 165 153 97 110 96 105 114 119 110 106 97
27 34 7 356 339 316 306 297 277 250 214 203 205 205 207 207 214 214 215 208 206 207 211 214 216 213 209 211 207 192 190 191 176 166 123 103 109 111 114 119 111 95 81
22 31 21 13 4 343 326 309 279 255 246 227 212 213 212 212 213 217 216 215 216 216 213 213 214 211 209 208 213 213 201 193 199 203 232 165 128 114 147 131 79 40 350
25 26 24 17 16 14 4 341 286 261 255 242 228 224 220 219 218 226 225 224 224 216 214 211 210 208 214 217 218 218 213 211 213 219 222 212 184 114 166 224 269 328 303
22 19 22 17 10 5 3 6 360 305 251 251 251 236 228 227 231 240 240 233 224 216 216 222 219 219 213 213 227 227 223 222 231 238 241 244 237 259 265 272 276 287 288
20 17 13 12 7 4 10 8 356 340 276 260 261 263 251 233 230 233 235 238 228 225 226 221 216 217 219 225 235 234 235 242 236 235 242 256 256 260 265 274 279 281 283
13 11 8 4 8 11 7 1 348 335 316 295 273 274 275 265 235 226 234 241 238 231 230 218 218 224 230 239 248 243 242 249 241 243 256 260 259 265 272 274 282 289 289
8 6 4 6 6 6 2 355 341 326 316 306 300 292 285 271 261 247 243 241 238 235 230 220 220 227 234 245 250 245 245 250 251 253 256 259 264 267 275 280 281 286 289
3 4 5 5 5 2 357 351 343 330 326 318 312 300 288 284 274 268 259 249 244 233 230 223 223 225 229 240 247 249 248 251 256 260 260 266 270 270 273 281 281 284 288
1 1 3 1 360 359 356 352 345 337 338 332 322 320 307 297 281 270 262 252 244 239 236 227 222 228 231 236 245 252 255 255 257 262 269 274 273 275 279 280 280 284 280
359 1 2 4 2 358 358 356 355 355 354 345 330 325 318 306 288 275 270 268 256 246 237 230 223 231 235 238 245 251 258 263 265 275 277 277 278 285 283 281 277 277 276
4 7 5 6 7 6 5 6 6 3 357 342 327 314 312 318 302 295 278 275 263 251 241 240 231 232 236 239 248 253 261 271 273 277 276 278 280 283 277 274 276 277 280
7 9 8 7 9 11 12 14 13 10 359 351 349 327 312 315 307 298 299 292 272 261 246 238 232 239 239 245 251 255 263 270 272 275 276 277 277 277 277 279 278 279 279
10 8 7 6 9 10 13 16 16 15 14 4 356 347 325 316 317 311 296 299 274 258 246 240 237 250 251 250 255 259 263 268 268 273 278 277 274 273 275 277 279 277 282
12 11 10 8 9 12 15 15 13 16 14 1 350 342 332 320 316 316 302 300 281 262 253 247 248 256 258 256 259 262 260 261 266 270 274 276 273 269 272 280 284 281 279
11 8 6 5 7 9 10 9 7 5 358 352 346 341 335 327 319 317 311 306 294 276 267 266 260 260 261 258 260 261 259 259 264 267 271 275 272 267 269 273 278 284 281
7 4 1 2 5 5 5 2 360 359 352 346 345 343 339 331 324 323 319 311 298 285 279 276 275 269 267 264 262 260 261 262 266 266 268 273 268 265 269 274 279 283 282
358 357 356 356 358 357 355 355 357 357 354 349 343 341 333 327 323 326 325 317 304 293 287 282 277 277 273 269 268 265 264 263 262 262 265 271 269 270 271 273 279 280 285
352 349 349 350 349 348 345 343 349 349 346 346 341 332 325 320 321 321 320 314 307 298 287 282 278 273 275 274 269 266 266 265 261 264 267 267 267 267 267 270 273 278 283
346 345 345 345 345 343 340 339 341 343 342 340 337 334 324 319 319 319 314 304 300 301 295 287 282 277 275 276 277 271 266 271 267 267 266 264 264 268 271 273 274 276 280
343 343 341 342 342 339 338 337 336 338 338 335 332 332 326 318 318 316 314 309 309 306 302 296 289 285 283 280 278 276 274 274 270 270 268 266 268 272 271 271 273 273 278
336 339 339 338 338 337 336 333 330 332 332 333 328 325 320 313 313 311 312 311 309 308 304 299 295 291 287 283 282 279 277 274 272 272 271 272 273 275 272 272 273 274 274
331 332 334 335 335 334 332 331 330 327 326 329 328 324 322 314 309 308 307 306 303 302 300 298 295 294 287 286 286 285 280 278 276 274 274 275 274 275 276 274 273 273 275